Regional Weather Roundup
Issued by NWS

Home | Current Version | Previous Version | Text Only | Print | Product List | Glossary On
Versions: 1 2 3 4 5 6 7 8 9 10 11 12 13 14 15 16 17 18 19 20 21 22 23 24 25 26 27 28 29 30 31 32 33 34 35 36 37 38 39 40 41 42 43 44 45 46 47 48 49 50
000
ASUS44 KJAN 190610
RWRMS

MISSISSIPPI HOURLY WEATHER ROUNDUP
NATIONAL WEATHER SERVICE JACKSON MS
100 AM CDT THU OCT 19 2017

NOTE: "FAIR: INDICATES FEW OR NO CLOUDS BELOW 12,000 FEET WITH NO
SIGNIFICANT WEATHER AND/OR OBSTRUCTIONS TO VISIBILITY.

MSZ001>002-007>008-010>013-018>021-025>028-034>036-190700-
NORTHWEST MISSISSIPPI

CITY           SKY/WX    TMP DP  RH WIND       PRES   REMARKS
BATESVILLE     FAIR      44  43  95 CALM      30.21S
CLARKSDALE       N/A     54  50  87 SE6       30.19S
CLEVELAND      FAIR      56  48  75 S5        30.19S
GREENWOOD      CLEAR     57  46  66 S6        30.19F
6HR MIN TEMP:  51; 6HR MAX TEMP:  62;

GREENVILLE     CLEAR     51  43  74 S6        30.18S
6HR MIN TEMP:  51; 6HR MAX TEMP:  65;

OXFORD         FAIR      54  45  71 S7        30.21S
TUNICA           N/A    N/A N/A N/A SE5       30.20S
WINONA         FAIR      45  44  99 CALM      30.20F
$$

MSZ003>006-009-014>017-022>024-029>033-037>039-190700-
NORTHEAST MISSISSIPPI

CITY           SKY/WX    TMP DP  RH WIND       PRES   REMARKS
COLUMBUS AFB   CLEAR     44  44  99 CALM      30.21F
6HR MIN TEMP:  44; 6HR MAX TEMP:  59;

CORINTH        FAIR      46  45  93 CALM      30.21S
STARKVILLE     FAIR      45  43  93 CALM      30.23F
TUPELO         CLEAR     49  45  86 CALM      30.21F
6HR MIN TEMP:  49; 6HR MAX TEMP:  64;

$$

MSZ040-058-190700-
CENTRAL MISSISSIPPI

CITY           SKY/WX    TMP DP  RH WIND       PRES   REMARKS
JACKSON INTL   CLEAR     55  48  77 CALM      30.20F
6HR MIN TEMP:  52; 6HR MAX TEMP:  65;

JACKSON HAWKNS CLEAR     55  50  83 E5        30.20F
6HR MIN TEMP:  53; 6HR MAX TEMP:  65;

MADISON        FAIR      52  48  87 CALM      30.20F
MERIDIAN KEY   CLEAR     49  47  93 CALM      30.21F
6HR MIN TEMP:  48; 6HR MAX TEMP:  59;

MERIDIAN NAS   CLEAR     49  45  86 CALM      30.22F
6HR MIN TEMP:  48; 6HR MAX TEMP:  64;

RAYMOND        FAIR      48  48 100 CALM      30.19F
VICKSBURG VKS  CLEAR     57  52  82 SE5       30.19F
$$

MSZ059>079-190700-
SOUTH MISSISSIPPI

CITY           SKY/WX    TMP DP  RH WIND       PRES   REMARKS
HATTIESBURG    CLEAR     50  50 100 CALM      30.20F
6HR MIN TEMP:  50; 6HR MAX TEMP:  63;

LAUREL         FAIR      49  49 100 CALM      30.21F
MCCOMB         CLEAR     55  51  86 CALM      30.18F
6HR MIN TEMP:  54; 6HR MAX TEMP:  70;

NATCHEZ        NOT AVBL
PINE BELT      NOT AVBL
$$

MSZ080>082-190700-
COASTAL MISSISSIPPI

CITY           SKY/WX    TMP DP  RH WIND       PRES   REMARKS
BILOXI         CLEAR     60  54  82 NE3       30.17F
6HR MIN TEMP:  59; 6HR MAX TEMP:  68;

PASCAGOULA     CLEAR     56  54  93 N3        30.18F
6HR MIN TEMP:  54; 6HR MAX TEMP:  59;

GULFPORT       CLEAR     58  55  90 CALM      30.18S
6HR MIN TEMP:  58; 6HR MAX TEMP:  70;

$$

LAZ007>009-015>016-023>026-190700-
NORTHEAST LOUISIANA

CITY           SKY/WX    TMP DP  RH WIND       PRES   REMARKS
BASTROP        FAIR      56  53  89 CALM      30.17F
TALLULAH/VBURG CLEAR     50  50 100 CALM      30.19S
6HR MIN TEMP:  50; 6HR MAX TEMP:  65;

VIDALIA          N/A    N/A N/A N/A MISG      30.17S
$$



USA.gov is the U.S. government's official web portal to all federal, state and local government web resources and services.